This is the latest recevied weather packets stored in our database for station/object KE8DAF-15. If no packets are shown the sender has not sent any weather packets the latest 10 day(s).
| Time | Temp. | Humidity | Pressure | Rain* | Wind** | Luminosity | Snow |
|---|---|---|---|---|---|---|---|
| 1777749615 | 10° C | 32% | 1002.5 hPa | 0 mm | - | - | - |
| 1777749315 | 10° C | 32% | 1002.6 hPa | 0 mm | - | - | - |
| 1777749015 | 9.44° C | 34% | 1002.6 hPa | 0 mm | - | - | - |
| 1777748715 | 10° C | 33% | 1002.7 hPa | 0 mm | - | - | - |
| 1777748415 | 10° C | 37% | 1002.7 hPa | 0 mm | - | - | - |
| 1777748115 | 9.44° C | 37% | 1002.8 hPa | 0 mm | - | - | - |
| 1777747815 | 9.44° C | 33% | 1002.9 hPa | 0 mm | - | - | - |
| 1777747515 | 8.89° C | 38% | 1002.9 hPa | 0 mm | - | - | - |
| 1777747215 | 8.89° C | 38% | 1002.8 hPa | 0 mm | - | - | - |
| 1777746915 | 9.44° C | 38% | 1002.8 hPa | 0 mm | - | - | - |
| 1777746615 | 8.89° C | 36% | 1002.8 hPa | 0 mm | - | - | - |
| 1777746315 | 8.89° C | 37% | 1002.9 hPa | 0 mm | - | - | - |
| 1777746015 | 8.33° C | 39% | 1002.7 hPa | 0 mm | - | - | - |
| 1777745715 | 8.33° C | 38% | 1002.8 hPa | 0 mm | - | - | - |
| 1777745415 | 8.33° C | 36% | 1002.8 hPa | 0 mm | - | - | - |
| 1777745115 | 8.33° C | 37% | 1002.8 hPa | 0 mm | - | - | - |
| 1777744815 | 8.89° C | 37% | 1002.8 hPa | 0 mm | - | - | - |
| 1777744515 | 8.89° C | 37% | 1002.8 hPa | 0 mm | - | - | - |
| 1777744215 | 8.89° C | 37% | 1002.9 hPa | 0 mm | - | - | - |
| 1777743915 | 8.33° C | 40% | 1002.9 hPa | 0 mm | - | - | - |
| 1777743616 | 8.33° C | 39% | 1003 hPa | 0 mm | - | - | - |
| 1777743316 | 8.33° C | 38% | 1003 hPa | 0 mm | - | - | - |
| 1777743015 | 7.78° C | 43% | 1003.1 hPa | 0 mm | - | - | - |
| 1777742715 | 7.22° C | 46% | 1003.1 hPa | 0 mm | - | - | - |
| 1777742415 | 6.67° C | 45% | 1003.2 hPa | 0 mm | - | - | - |
* Rain latest hour (hover to see other rain measurements)
** Current wind speed in m/s (hover to see current wind gust speed)